Flag for U.S.A. Weather past 2 weeks in Grand Rapids, Michigan, U.S.A.

Now
80 °F

Broken clouds.


Feels Like: 85 °F
Forecast: 68 / 84 °F
Wind: 6 mph from South

Location: Kent County International Airport

Current Time: Aug 22, 2014 at 4:49:28 PM

Latest Report: Aug 22, 2014 at 3:53 PM


Visibility: 10 mi

Pressure: 29.95 "Hg

Humidity: 85%

Dew point: 75 °F

Location of Grand RapidsLocation

Historic Weather in Grand Rapids — Graph

°F

Grand Rapids temperature yesterday

Maximum temperature yesterday: 79 °F (at 1:53 PM)
Minimum temperature yesterday: 64 °F (at 4:53 AM)
Average temperature yesterday: 72 °F

Past Weeks' High & Low Weather Summary

 TemperatureHumidityPressure
High85 °F (Aug 10, 2:53 PM)100% (Aug 12, 12:53 PM)30.16 "Hg (Aug 12, 12:53 PM)
Low47 °F (Aug 15, 6:53 AM)28% (Aug 8, 3:53 PM)29.67 "Hg (Aug 12, 4:53 AM)
Average69 °F78%29.95 "Hg
* Reported Aug 7 3:53 PM — Aug 22 3:53 PM, Grand Rapids, Weather by CustomWeather, © 2014

Note: Actual official high and low records may vary slightly from our data, if they occured in-between our weather recording intervals... More about our weather records

Advertising

Grand Rapids weather history for previous 24 hours

 ConditionsComfort  
Time TempWeatherWind HumidityBarometerVisibility
3:53 PM
Aug 22
80 °FBroken clouds.6 mph85%29.95 "Hg10 mi
2:53 PM79 °FMostly cloudy.5 mph84%29.96 "Hg10 mi
1:53 PM78 °FMostly cloudy.5 mph90%29.96 "Hg10 mi
12:53 PM77 °FOvercast.6 mph90%29.98 "Hg10 mi
11:53 AM76 °FOvercast.6 mph94%29.98 "Hg8 mi
10:53 AM75 °FMostly cloudy.7 mph94%29.97 "Hg8 mi
9:53 AM72 °FFog.6 mph100%29.96 "Hg2 mi
8:53 AM71 °FFog.6 mph100%29.96 "Hg1 mi
7:53 AM70 °FFog.6 mph100%29.95 "Hg0 mi
6:53 AM70 °FFog.5 mph100%29.95 "Hg0 mi
5:53 AM71 °FFog.5 mph100%29.93 "Hg4 mi
5:02 AM70 °FFog.No wind100%29.94 "Hg4 mi
4:53 AM70 °FFog.3 mph100%29.93 "Hg4 mi
3:53 AM71 °FFog.5 mph100%29.92 "Hg3 mi
3:01 AM70 °FFog.3 mph100%29.94 "Hg2 mi
2:53 AM70 °FFog.3 mph100%29.93 "Hg2 mi
2:01 AM70 °FFog.No wind100%29.98 "Hg3 mi
12:53 AM71 °FFog.No wind100%29.98 "Hg4 mi
11:53 PM
Aug 21
72 °FFog.3 mph100%29.97 "Hg4 mi
10:53 PM72 °FFog.3 mph97%29.97 "Hg5 mi
9:53 PM72 °FFog.No wind97%29.95 "Hg6 mi
8:53 PM74 °FScattered clouds.No wind94%29.94 "Hg8 mi
7:53 PM76 °FBroken clouds.10 mph91%29.95 "Hg10 mi
6:53 PM78 °FPartly sunny.5 mph84%29.95 "Hg10 mi
5:53 PM78 °FMostly cloudy.No wind84%29.95 "Hg9 mi
4:53 PM77 °FMostly cloudy.7 mph88%29.96 "Hg10 mi
Weather by CustomWeather, © 2014

See weather overviewHow to use our weather pages